Location: Unspecified
(51.0950°N, 12.9690°E)
Time: 21:58:01
(UTC+00:00)

Cosmos 2061 Rocket - Pass Details

Date: 28 October 2021
Orbit: 966 x 1012 km, 82.9° (Epoch: 01 December)

Event Time Altitude Azimuth Distance (km) Brightness Sun altitude
Rises 18:00:48 0° 166° (SSE) 3,705 6.8 -21.2°
Reaches altitude 10° 18:03:24 10° 160° (SSE) 2,766 6.1 -21.6°
Maximum altitude 18:09:25 46° 90° (E) 1,327 4.2 -22.5°
Drops below altitude 10° 18:15:30 10° 19° (NNE) 2,804 6.3 -23.5°
Sets 18:18:09 0° 14° (NNE) 3,761 7.0 -23.9°
